This is the latest recevied weather packets stored in our database for station/object SV2LPQ-2. If no packets are shown the sender has not sent any weather packets the latest 10 day(s).
| Time | Temp. | Humidity | Pressure | Rain* | Wind** | Luminosity | Snow |
|---|---|---|---|---|---|---|---|
| 1777689248 | 6.67° C | 80% | 1042.5 hPa | 0 mm | - | - | - |
| 1777688748 | 6.67° C | 82% | 1042.5 hPa | 0 mm | - | - | - |
| 1777688248 | 7.22° C | 81% | 1042.5 hPa | 0 mm | - | - | - |
| 1777687748 | 7.22° C | 80% | 1042.5 hPa | 0 mm | - | - | - |
| 1777687247 | 7.78° C | 78% | 1042.5 hPa | 0 mm | - | - | - |
| 1777686747 | 8.33° C | 76% | 1042.5 hPa | 0 mm | - | - | - |
| 1777686247 | 8.33° C | 75% | 1042.5 hPa | 0 mm | - | - | - |
| 1777685747 | 8.89° C | 74% | 1042.5 hPa | 0 mm | - | - | - |
| 1777685247 | 8.89° C | 74% | 1042.5 hPa | 0 mm | - | - | - |
| 1777684747 | 8.89° C | 73% | 1042.5 hPa | 0 mm | - | - | - |
| 1777684247 | 8.89° C | 76% | 1042.5 hPa | 0 mm | - | - | - |
| 1777683747 | 9.44° C | 83% | 1042.5 hPa | 0 mm | - | - | - |
| 1777683247 | 9.44° C | 83% | 1042.5 hPa | 0 mm | - | - | - |
| 1777682747 | 8.89° C | 84% | 1042.5 hPa | 0 mm | - | - | - |
| 1777682247 | 8.33° C | 86% | 1042.5 hPa | 0 mm | - | - | - |
| 1777681747 | 8.33° C | 85% | 1042.5 hPa | 0 mm | - | - | - |
| 1777681247 | 7.78° C | 84% | 1042.5 hPa | 0 mm | - | - | - |
| 1777680747 | 7.78° C | 83% | 1042.5 hPa | 0 mm | - | - | - |
| 1777680246 | 8.33° C | 82% | 1042.5 hPa | 0 mm | - | - | - |
| 1777679746 | 8.33° C | 80% | 1042.5 hPa | 0 mm | - | - | - |
| 1777679246 | 8.33° C | 81% | 1042.5 hPa | 0 mm | - | - | - |
| 1777678745 | 8.33° C | 80% | 1042.5 hPa | 0 mm | - | - | - |
| 1777678245 | 8.89° C | 77% | 1042.5 hPa | 0 mm | - | - | - |
| 1777677745 | 9.44° C | 76% | 1042.5 hPa | 0 mm | - | - | - |
| 1777677245 | 10° C | 74% | 1042.5 hPa | 0 mm | - | - | - |
* Rain latest hour (hover to see other rain measurements)
** Current wind speed in m/s (hover to see current wind gust speed)